EW3302 Weather Reports


Display with metric or nautical units.
time (UTC)temp
F
wind
direction
speed
MPH
gust
MPH
rain 1hr
in
rain 24hr
in
rain mn
in
humidity
%
barometer
mb
20221004030016 35 293 1.0 2.0 0.00 0.02 0.01 96 1013.8
20221004025016 36 315 1.0 2.0 0.00 0.02 0.01 96 1013.8
20221004024016 36 315 2.0 3.0 0.01 0.02 0.01 96 1014.0
20221004023017 36 315 2.0 3.0 0.01 0.02 0.01 96 1014.0
20221004022016 36 315 2.0 3.0 0.01 0.02 0.01 96 1014.0
20221004021016 36 293 2.0 4.0 0.01 0.02 0.01 96 1014.1
20221004020016 36 315 2.0 4.0 0.01 0.02 0.01 96 1014.1
20221004015016 37 338 1.0 3.0 0.01 0.02 0.01 96 1014.2
20221004014016 37 338 1.0 2.0 0.00 0.01 0.00 96 1014.4
20221004013016 37 315 2.0 3.0 0.00 0.01 0.00 96 1014.3
20221004012036 37 315 2.0 4.0 0.00 0.01 0.00 96 1014.4
20221004011036 38 338 3.0 5.0 0.00 0.01 0.00 96 1014.4
20221004010016 38 315 3.0 5.0 0.00 0.01 0.00 96 1014.4
20221004005016 37 315 4.0 7.0 0.00 0.01 0.00 96 1014.4
20221004004016 37 315 2.0 3.0 0.00 0.01 0.00 96 1014.4
20221004003016 38 293 2.0 3.0 0.00 0.01 0.00 96 1014.4
20221004002016 38 338 2.0 4.0 0.00 0.01 0.00 96 1014.5
20221004001016 38 315 2.0 4.0 0.00 0.01 0.00 96 1014.6
20221004000016 38 315 2.0 4.0 0.00 0.01 0.00 96 1014.6
20221003235016 38 338 2.0 4.0 0.00 0.01 0.00 96 1014.6
20221003234016 38 315 2.0 4.0 0.00 0.01 0.00 96 1014.7
20221003233016 39 315 2.0 4.0 0.00 0.01 0.00 96 1014.8
20221003232016 39 315 3.0 5.0 0.00 0.01 0.00 96 1014.8
20221003231016 39 293 3.0 4.0 0.00 0.01 0.00 96 1014.8
20221003230016 39 315 3.0 5.0 0.00 0.01 0.00 96 1014.7
20221003225016 39 315 3.0 5.0 0.00 0.01 0.00 96 1014.8
20221003224016 39 315 2.0 4.0 0.00 0.01 0.00 96 1014.7
20221003223016 39 315 3.0 6.0 0.00 0.01 0.00 96 1014.7
20221003222016 40 315 2.0 4.0 0.00 0.01 0.00 96 1014.8
20221003221016 40 315 2.0 4.0 0.00 0.02 0.00 96 1014.7
20221003220016 41 315 3.0 5.0 0.00 0.02 0.02 96 1014.8
20221003215015 40 315 3.0 5.0 0.00 0.02 0.02 96 1014.8
20221003214015 40 315 3.0 6.0 0.00 0.02 0.02 96 1015.0
20221003213035 40 293 3.0 5.0 0.00 0.02 0.02 96 1015.0
20221003212035 40 315 2.0 4.0 0.00 0.02 0.02 96 1015.0
20221003211035 40 315 2.0 3.0 0.00 0.02 0.02 96 1015.1
20221003210015 41 315 2.0 3.0 0.00 0.02 0.02 96 1015.1
20221003205015 41 315 2.0 3.0 0.00 0.02 0.02 96 1015.2
20221003204015 42 315 2.0 5.0 0.00 0.02 0.02 96 1015.2
20221003203015 42 293 3.0 5.0 0.00 0.02 0.02 96 1015.3
20221003202015 42 293 3.0 6.0 0.00 0.02 0.02 96 1015.2
20221003201015 42 270 3.0 5.0 0.00 0.02 0.02 96 1015.3
20221003200015 42 293 3.0 4.0 0.00 0.02 0.02 96 1015.2
20221003195115 41 293 3.0 5.0 0.00 0.02 0.02 96 1015.2
20221003194015 41 293 3.0 4.0 0.00 0.02 0.02 96 1015.2
20221003193015 41 315 2.0 3.0 0.00 0.02 0.02 96 1015.2
20221003192015 41 0 2.0 4.0 0.00 0.02 0.02 96 1015.3
20221003191015 41 315 3.0 5.0 0.00 0.02 0.02 96 1015.3
20221003190015 40 0 2.0 3.0 0.00 0.02 0.02 95 1015.1
20221003185055 40 315 2.0 3.0 0.00 0.02 0.02 95 1015.1
20221003184015 40 293 2.0 2.0 0.00 0.02 0.02 95 1015.0
20221003183015 41 270 1.0 2.0 0.00 0.02 0.02 95 1015.0
20221003182018 41 270 1.0 2.0 0.00 0.03 0.02 94 1014.9
20221003181015 41 270 1.0 2.0 0.00 0.03 0.02 94 1014.9
20221003180035 42 270 1.0 1.0 0.00 0.03 0.02 94 1014.9
20221003175015 42 270 1.0 2.0 0.00 0.03 0.02 93 1014.8
20221003174135 43 270 1.0 1.0 0.00 0.03 0.02 93 1014.8
20221003173015 43 270 1.0 1.0 0.00 0.03 0.02 93 1014.7
20221003172035 44 0.0 1.0 0.00 0.03 0.02 92 1014.8
20221003171015 45 0.0 1.0 0.00 0.03 0.02 91 1014.8
20221003170035 45 0 1.0 2.0 0.00 0.03 0.02 91 1014.9
20221003165015 46 0.0 0.0 0.00 0.03 0.02 89 1014.9
20221003164015 47 0.0 1.0 0.00 0.03 0.02 88 1015.1
20221003163015 48 0.0 0.0 0.00 0.03 0.02 85 1015.1
20221003162035 50 0.0 2.0 0.00 0.03 0.02 84 1015.2
20221003161015 51 315 1.0 2.0 0.00 0.03 0.02 82 1015.2
20221003160035 51 0 2.0 4.0 0.00 0.03 0.02 81 1015.0
20221003155035 52 293 2.0 4.0 0.00 0.03 0.02 81 1015.1
20221003154015 52 315 2.0 4.0 0.00 0.03 0.02 80 1015.0
20221003153055 52 315 3.0 6.0 0.00 0.03 0.02 79 1015.0
20221003152015 52 0 2.0 5.0 0.00 0.03 0.02 80 1015.0
20221003151015 53 315 2.0 5.0 0.00 0.03 0.02 79 1014.9
20221003150035 53 0 2.0 4.0 0.00 0.03 0.02 79 1014.9
20221003145015 53 0 3.0 6.0 0.00 0.03 0.02 79 1015.0
20221003144015 53 0 3.0 7.0 0.00 0.03 0.02 78 1014.9
20221003143015 53 0 4.0 7.0 0.00 0.03 0.02 79 1014.8
20221003142055 53 315 2.0 5.0 0.00 0.03 0.02 80 1014.8
20221003141035 54 315 4.0 10.0 0.00 0.03 0.02 79 1014.8
20221003140035 54 293 4.0 11.0 0.00 0.03 0.02 79 1014.7
20221003135015 54 315 5.0 12.0 0.00 0.03 0.02 77 1014.6
20221003134015 55 315 5.0 11.0 0.00 0.03 0.02 77 1014.6
20221003133015 54 315 5.0 11.0 0.00 0.03 0.02 78 1014.5
20221003132035 54 315 5.0 8.0 0.00 0.03 0.02 81 1014.3
20221003131015 54 293 5.0 11.0 0.00 0.03 0.02 81 1014.4
20221003130015 53 315 4.0 8.0 0.00 0.03 0.02 83 1014.3
20221003125035 53 293 5.0 8.0 0.00 0.03 0.02 86 1014.3
20221003124015 53 270 4.0 9.0 0.00 0.03 0.02 86 1014.4
20221003123037 53 248 5.0 8.0 0.00 0.03 0.02 87 1014.4
20221003122037 52 270 4.0 7.0 0.00 0.03 0.02 88 1014.5
20221003121057 52 270 4.0 8.0 0.00 0.03 0.02 89 1014.5
20221003120017 52 270 5.0 8.0 0.00 0.03 0.02 88 1014.5
20221003115017 52 270 4.0 9.0 0.00 0.03 0.02 88 1014.4
20221003114037 51 270 2.0 5.0 0.00 0.03 0.02 89 1014.4
20221003113017 51 270 4.0 8.0 0.00 0.03 0.02 90 1014.4
20221003112037 51 248 5.0 10.0 0.00 0.03 0.02 90 1014.4
20221003111017 50 270 5.0 9.0 0.00 0.03 0.02 90 1014.4
20221003110017 50 270 4.0 8.0 0.00 0.03 0.02 91 1014.3
20221003105017 50 248 3.0 6.0 0.00 0.03 0.02 93 1014.2
20221003104017 49 270 5.0 8.0 0.00 0.03 0.02 93 1014.2
20221003103017 49 270 5.0 9.0 0.00 0.03 0.02 93 1014.3
20221003102017 49 270 4.0 9.0 0.00 0.03 0.02 94 1014.2
20221003101137 49 270 4.0 7.0 0.00 0.03 0.02 94 1014.1
20221003100017 48 270 5.0 8.0 0.00 0.03 0.02 94 1014.0
20221003095017 48 270 6.0 9.0 0.00 0.03 0.02 95 1014.0
20221003094017 48 0 5.0 9.0 0.00 0.03 0.02 95 1014.0
20221003093017 48 270 4.0 9.0 0.00 0.03 0.02 95 1013.9
20221003092017 48 270 4.0 8.0 0.00 0.03 0.02 96 1013.9
20221003091037 48 270 6.0 11.0 0.00 0.04 0.02 96 1013.8
20221003090017 48 270 3.0 8.0 0.00 0.04 0.02 97 1013.7
20221003085017 47 270 6.0 10.0 0.00 0.04 0.02 97 1013.7
20221003084037 47 270 4.0 8.0 0.00 0.04 0.02 97 1013.7
20221003083057 47 293 5.0 9.0 0.00 0.04 0.02 97 1013.6
20221003082017 47 270 4.0 8.0 0.00 0.04 0.02 97 1013.5
20221003081017 47 315 3.0 5.0 0.00 0.04 0.02 97 1013.4
20221003080017 47 315 3.0 5.0 0.00 0.04 0.02 97 1013.4
20221003075016 47 315 2.0 5.0 0.00 0.06 0.02 97 1013.3
20221003074016 46 338 1.0 4.0 0.00 0.10 0.02 97 1013.3
20221003073017 46 315 1.0 4.0 0.00 0.11 0.02 97 1013.2
20221003072017 46 293 2.0 4.0 0.01 0.11 0.02 97 1013.1
20221003071017 46 248 1.0 3.0 0.01 0.11 0.02 97 1013.0
20221003070016 45 0.0 1.0 0.01 0.11 0.02 97 1012.8
20221003065016 45 338 1.0 4.0 0.01 0.11 0.02 97 1012.7
20221003064037 44 315 2.0 4.0 0.01 0.13 0.02 97 1012.5
20221003063017 44 315 1.0 3.0 0.01 0.13 0.02 97 1012.5
20221003062037 44 315 2.0 4.0 0.00 0.14 0.01 97 1012.5
20221003061016 44 315 2.0 4.0 0.00 0.16 0.01 97 1012.4
20221003060017 44 293 1.0 3.0 0.00 0.17 0.01 97 1012.5
20221003055016 44 315 1.0 2.0 0.00 0.17 0.01 97 1012.5
20221003054016 44 315 1.0 3.0 0.00 0.17 0.01 97 1012.5
20221003053016 44 315 1.0 2.0 0.00 0.17 0.01 97 1012.3
20221003052016 44 293 1.0 2.0 0.00 0.17 0.01 97 1012.2
20221003051016 44 270 1.0 2.0 0.00 0.17 0.01 97 1012.3
20221003050017 44 270 1.0 2.0 0.00 0.17 0.01 97 1012.2
20221003045016 45 270 1.0 2.0 0.00 0.17 0.01 97 1012.1
20221003044016 45 0.0 1.0 0.00 0.17 0.01 97 1012.1
20221003043017 45 0.0 0.0 0.00 0.17 0.01 97 1012.0
20221003042016 45 0.0 0.0 0.00 0.17 0.01 97 1011.9
20221003041016 45 0.0 1.0 0.00 0.17 0.01 97 1012.0
20221003040016 45 0.0 1.0 0.00 0.17 0.01 97 1011.9
20221003035017 45 0.0 1.0 0.00 0.17 0.01 97 1011.8
20221003034016 45 0.0 1.0 0.00 0.17 0.01 97 1011.8
20221003033016 45 0.0 0.0 0.00 0.17 0.01 97 1011.8
20221003032016 45 0.0 1.0 0.00 0.17 0.01 97 1011.8
20221003031016 45 0.0 1.0 0.00 0.17 0.01 97 1011.7